Skip Page Navigation
NASA JPL Caltech
NASA Logo - Jet Propulsion Laboratory + View the NASA Portal
+ Center for Near-Earth Object Studies
JPL Home Earth Solar System Stars & Galaxies Technology
JPL Solar System Dynamics
BODIES ORBITS EPHEMERIDES TOOLS PHYSICAL DATA DISCOVERY FAQ SITE MAP
JPL Small-Body Database Browser
Search: [ help ]  
43565 (2001 FC110)
Classification: Main-belt Asteroid          SPK-ID: 2043565
Ephemeris | Orbit Diagram | Orbital Elements | Mission Design | Physical Parameters | Discovery Circumstances ]

[ show orbit diagram ]
Orbital Elements at Epoch 2459200.5 (2020-Dec-17.0) TDB
Reference: JPL 31 (heliocentric ecliptic J2000)
 Element Value Uncertainty (1-sigma)   Units 
e .09670568695391041 2.9953e-08  
a 2.636236445320032 1.0664e-08 au
q 2.381297388902423 7.8005e-08 au
i 3.161132562836516 3.5181e-06 deg
node 77.87532064383781 6.6283e-05 deg
peri 199.1743394495986 6.914e-05 deg
M 150.0999803378941 2.0048e-05 deg
tp 2458548.641848013165
(2019-Mar-06.14184801)
8.6523e-05 TDB
period 1563.417491374689
4.28
9.4863e-06
2.597e-08
d
yr
n .2302647897865449 1.3972e-09 deg/d
Q 2.89117550173764 1.1695e-08 au
  Orbit Determination Parameters
   # obs. used (total)      1053  
   data-arc span      11012 days (30.15 yr)  
   first obs. used      1990-12-19  
   last obs. used      2021-02-11  
   planetary ephem.      DE441  
   SB-pert. ephem.      SB441-N16  
   condition code      0  
   norm. resid. RMS      .52975  
   source      ORB  
   producer      Otto Matic  
   solution date      2021-Apr-13 09:20:52  

Additional Information
 Earth MOID = 1.36331 au 
 Jupiter MOID = 2.19636 au 
 T_jup = 3.389 
[ show covariance matrix ]

Ephemeris | Orbit Diagram | Orbital Elements | Mission Design | Physical Parameters | Discovery Circumstances ]

Physical Parameter Table
Parameter Symbol Value Units Sigma Reference Notes
absolute magnitude H 15.08   n/a MPCxxxxx  
diameter diameter 2.795 km 0.435 urn:nasa:pds:neowise_diameters_albedos::2.0[mainbelt] (http://adsabs.harvard.edu/abs/2011ApJ...741...68M)  
geometric albedo albedo 0.272   0.038 urn:nasa:pds:neowise_diameters_albedos::2.0[mainbelt] (http://adsabs.harvard.edu/abs/2011ApJ...741...68M)  

43565 (2001 FC110)          Discovered 2001-Mar-18 by LINEAR at Socorro
Reference: 20020624/Numbers.arcLast Updated: 2004-04-19

Alternate Designations
 2001 FC110 = 1992 EF20 = 1998 ST105 
Ephemeris | Orbit Diagram | Orbital Elements | Mission Design | Physical Parameters | Discovery Circumstances ]
ABOUT SSD CREDITS/AWARDS PRIVACY/COPYRIGHT GLOSSARY LINKS
FirstGov 2021-Jun-21 14:29 UT
(server date/time)  
NASA Home Page
Site Manager:   Ryan S. Park
Webmaster  Alan B. Chamberlin